Cheyenne, WY

4:21 PM MST on November 23, 2017 (GMT -0700)
Cheyenne

Weather History for KCYS - January, 2014

Change the Weather History Date:

Tuesday, January 28, 2014

  Actual Average Record
Temperature  
Mean Temperature 10 °F 28 °F  
Max Temperature 27 °F 39 °F 61 °F (1920)
Min Temperature -8 °F 18 °F -19 °F (1951)
Degree Days  
Heating Degree Days 55 37  
Month to date heating degree days 1012 1012  
Since 1 July heating degree days 3912 3915  
Cooling Degree Days 0 0  
Month to date cooling degree days 0 0  
Year to date cooling degree days 0 0  
Moisture  
Dew Point -2 °F    
Average Humidity 58    
Maximum Humidity 82    
Minimum Humidity 33    
Precipitation  
Precipitation 0.00 in 0.01 in 0.86 in (1891)
Month to date precipitation 0.69 0.29  
Year to date precipitation 0.69 0.29  
Snow  
Snow 0.00 in 0.20 in 8.60 in (1891)
Month to date snowfall 11.0 5.3  
Since 1 July snowfall 36.7 28.0  
Snow Depth 3.00 in    
Sea Level Pressure  
Sea Level Pressure 30.30 in    
Wind  
Wind Speed 10 mph (WNW)    
Max Wind Speed 22 mph    
Max Gust Speed 28 mph    
Visibility 10 miles    
Events      
T = Trace of Precipitation, MM = Missing Value Source: NWS Daily Summary

Daily Weather History Graph

Daily Weather History Graph

Search for Another Location

Airport or City:

Trip Planner

Search our weather history database for the weather conditions in past years. The results will help you decide how hot, cold, wet, or windy it might be!

Date:

Astronomy

Jan. 28, 2014 Rise Set
Actual Time 7:13 AM MST 5:11 PM MST
Civil Twilight 6:44 AM MST 5:40 PM MST
Nautical Twilight 6:11 AM MST 6:13 PM MST
Astronomical Twilight 5:38 AM MST 6:46 PM MST
Moon 4:58 AM MST (1/28) 3:03 PM MST (1/28)
Length of Visible Light 10h 56m
Length of Day
9h 57m
Waning Crescent, 7% of the Moon is Illuminated
Jan 28
Waning Crescent
Jan 30
New
Feb 6
First Quarter
Feb 14
Full
Feb 22
Last Quarter

Hourly Weather History & Observations

Time (MST) Temp. Windchill Dew Point Humidity Pressure Visibility Wind Dir Wind Speed Gust Speed Precip Events Conditions
12:53 AM -6.0 °F -18.6 °F -9.9 °F 83% 30.42 in 10.0 mi WNW 5.8 mph - N/A   Clear
1:53 AM -0.9 °F -18.3 °F -8.0 °F 72% 30.39 in 10.0 mi NW 11.5 mph - N/A   Clear
2:53 AM -0.9 °F -16.4 °F -9.0 °F 69% 30.40 in 10.0 mi WNW 9.2 mph - N/A   Clear
3:53 AM -0.0 °F -18.0 °F -9.9 °F 63% 30.39 in 10.0 mi West 12.7 mph - N/A   Clear
4:53 AM 1.0 °F -14.9 °F -9.0 °F 63% 30.38 in 10.0 mi WNW 10.4 mph - N/A   Clear
5:53 AM 1.9 °F -16.2 °F -7.1 °F 66% 30.38 in 10.0 mi WNW 13.8 mph - N/A   Clear
6:53 AM 5.0 °F -10.0 °F -8.0 °F 55% 30.39 in 10.0 mi WNW 10.4 mph - N/A   Clear
7:53 AM 1.9 °F -5.6 °F -9.0 °F 60% 30.43 in 10.0 mi WNW 3.5 mph - N/A   Clear
8:53 AM 10.0 °F -2.9 °F -6.0 °F 48% 30.45 in 10.0 mi West 9.2 mph - N/A   Clear
9:53 AM 16.0 °F 1.7 °F -2.0 °F 45% 30.39 in 10.0 mi WNW 13.8 mph 19.6 mph N/A   Clear
10:53 AM 19.0 °F 8.2 °F -0.0 °F 43% 30.40 in 10.0 mi WNW 9.2 mph 18.4 mph N/A   Clear
11:53 AM 21.0 °F 9.3 °F -0.9 °F 38% 30.36 in 10.0 mi NW 11.5 mph - N/A   Clear
12:53 PM 23.0 °F 12.4 °F -0.0 °F 37% 30.30 in 10.0 mi NW 10.4 mph 20.7 mph N/A   Clear
1:53 PM 26.1 °F 14.5 °F 1.0 °F 34% 30.24 in 10.0 mi NW 13.8 mph 20.7 mph N/A   Clear
2:53 PM 26.1 °F 15.6 °F 1.9 °F 35% 30.22 in 10.0 mi NW 11.5 mph 19.6 mph N/A   Clear
3:53 PM 26.1 °F 17.6 °F 3.0 °F 37% 30.22 in 10.0 mi West 8.1 mph - N/A   Clear
4:53 PM 24.1 °F 18.2 °F 3.0 °F 40% 30.22 in 10.0 mi NW 4.6 mph - N/A   Clear
5:53 PM 19.9 °F 12.1 °F 1.9 °F 46% 30.24 in 10.0 mi SW 5.8 mph - N/A   Partly Cloudy
6:53 PM 19.0 °F 11.1 °F 1.0 °F 46% 30.23 in 10.0 mi WSW 5.8 mph - N/A   Mostly Cloudy
7:53 PM 16.0 °F 5.3 °F 1.0 °F 52% 30.25 in 10.0 mi WSW 8.1 mph - N/A   Clear
8:53 PM 21.0 °F 10.6 °F -0.0 °F 40% 30.18 in 10.0 mi West 9.2 mph - N/A   Clear
9:53 PM 21.0 °F 8.6 °F 1.0 °F 42% 30.15 in 10.0 mi WSW 12.7 mph 19.6 mph N/A   Clear
10:53 PM 25.0 °F 10.6 °F 1.9 °F 37% 30.11 in 10.0 mi West 20.7 mph 25.3 mph N/A   Clear
11:53 PM 25.0 °F 10.9 °F 3.0 °F 39% 30.08 in 10.0 mi West 19.6 mph 25.3 mph N/A   Clear